ECMWFNIL_925_rhum_000.txt.gz
RH
46 45 41 39 39 36 33 33 34 34 34 34 34 35 37 40 41 42 44 43 45 51 54 56 62 66 68 70 73 77 77 73 69 66 67 70 72 75 76 76 76 75
47 45 43 42 41 37 33 34 35 35 36 36 34 35 37 39 41 42 43 42 47 54 57 62 68 70 71 74 76 77 77 72 68 69 71 73 75 77 77 77 76 74
48 45 44 44 43 39 35 35 35 36 38 38 36 36 39 41 43 44 43 43 51 59 62 66 71 73 74 76 78 78 76 73 71 72 75 76 76 76 75 74 74 74
51 48 46 46 45 41 38 38 39 40 40 39 38 39 41 43 45 45 45 49 54 57 62 68 71 72 75 77 79 81 78 75 74 75 74 74 74 73 73 73 74 75
53 50 48 48 46 43 41 41 43 44 42 41 42 43 43 45 46 45 46 51 55 57 62 68 69 71 74 77 79 81 80 76 75 74 73 73 74 73 72 73 76 78
55 53 51 49 45 44 44 44 46 47 44 42 44 46 46 47 47 45 46 52 57 60 65 69 70 71 73 76 79 80 79 78 75 72 71 72 73 73 74 77 81 83
55 54 53 50 46 45 45 46 48 48 45 44 46 49 50 51 50 50 51 54 57 61 65 67 69 71 72 74 75 76 76 76 74 71 70 71 74 75 78 82 83 84
55 54 54 52 49 47 47 48 50 49 48 49 49 51 53 52 52 54 53 54 56 60 64 67 70 71 71 71 72 73 73 74 74 73 70 71 75 78 81 84 86 87
54 54 55 55 53 50 48 51 53 51 51 52 51 53 55 54 55 55 53 54 57 59 63 67 69 69 70 71 70 71 72 73 75 74 72 72 76 81 84 86 87 87
55 54 56 57 57 54 51 54 56 54 54 54 53 55 57 56 57 56 55 56 57 59 64 66 66 68 69 69 69 71 73 73 75 75 73 73 77 85 89 88 87 90
56 57 58 58 58 57 56 57 57 55 56 56 56 58 58 58 60 58 56 58 58 60 63 64 64 66 68 69 69 70 71 73 75 74 72 74 79 88 91 90 91 96
57 58 59 59 60 60 60 59 57 55 57 58 58 58 58 59 61 60 58 58 59 61 62 62 64 65 66 68 69 70 73 73 73 73 75 77 81 86 91 93 96 100
58 57 58 60 61 61 61 61 57 54 56 59 58 57 57 58 60 61 61 60 60 62 62 61 62 63 65 67 69 71 73 72 75 77 77 78 83 90 96 97 96 96
58 57 58 61 61 60 61 59 56 53 55 57 58 57 56 56 57 59 61 62 63 62 61 60 62 64 65 67 69 72 74 76 79 77 75 80 91 97 96 93 91 88
60 60 60 61 62 62 61 59 56 53 54 56 59 58 55 55 56 57 59 62 63 62 61 61 63 64 66 69 71 72 75 77 77 76 81 90 95 94 90 89 88 80
62 62 61 62 63 63 62 61 57 54 54 56 59 58 55 54 56 57 60 61 61 61 61 62 64 66 69 74 77 76 75 76 78 85 94 95 92 89 89 89 84 71
64 64 63 63 64 64 64 62 59 57 56 56 57 57 55 54 55 57 59 60 60 61 61 63 64 66 72 79 82 81 82 83 86 92 97 94 91 89 89 88 78 64
66 65 65 65 65 65 65 62 60 60 60 58 56 55 55 55 56 57 58 59 60 60 61 63 64 67 75 81 82 83 87 90 91 94 96 92 89 88 88 86 75 64
66 66 67 68 67 66 65 63 62 64 64 60 57 56 55 55 57 58 59 59 60 60 61 62 63 68 76 80 81 85 91 92 92 95 95 89 87 88 87 82 73 67
67 67 68 69 68 67 65 64 65 67 65 61 60 58 56 55 57 59 60 59 60 61 62 62 63 67 73 78 81 85 90 92 93 94 91 86 87 89 86 80 74 69
67 67 69 70 70 69 68 66 68 69 67 64 62 60 57 55 56 59 60 59 59 61 63 64 64 68 74 77 80 85 89 92 93 91 87 85 87 87 85 81 74 68
67 68 69 70 72 73 71 70 71 71 69 67 65 63 61 57 56 57 57 57 59 61 63 64 65 70 76 77 79 86 91 93 93 89 85 86 88 87 85 81 73 69
68 68 69 70 73 75 75 76 78 74 69 67 67 66 62 57 55 55 55 55 58 60 63 65 65 69 76 79 81 88 93 93 90 85 83 86 88 88 87 82 75 72
68 68 68 71 74 76 77 80 81 78 73 69 67 65 61 57 54 52 51 53 56 59 63 65 63 65 73 78 81 88 94 91 87 86 86 87 90 90 87 84 81 80
68 68 68 71 74 77 78 80 80 79 76 72 69 65 60 56 54 50 50 53 56 59 63 65 63 62 69 76 80 88 93 89 86 89 87 87 92 92 90 90 89 85
68 69 69 71 75 77 78 79 79 79 77 73 70 66 60 56 53 52 52 54 56 59 62 66 65 62 65 74 81 88 92 88 86 89 89 92 95 92 93 97 93 88

ECMWFNIL_925_rhum_003.txt.gz
RH
50 49 47 44 37 30 27 27 28 28 29 30 30 34 36 35 34 36 40 41 40 40 37 34 38 41 41 47 54 55 56 60 64 65 65 65 65 65 66 68 71 74
51 50 47 45 41 36 31 29 29 30 31 30 30 36 37 33 34 36 38 40 41 42 38 36 41 44 42 47 54 57 61 66 68 68 69 68 66 67 68 71 74 76
52 51 49 47 44 40 37 34 34 34 33 32 34 40 38 32 33 36 38 40 42 43 40 38 43 43 41 46 55 61 67 73 73 71 70 69 69 70 71 75 76 76
54 52 50 48 46 43 40 38 37 37 35 35 40 43 38 32 34 37 40 43 44 43 40 38 40 40 42 49 58 64 70 76 77 74 72 71 71 72 75 77 75 73
54 53 52 51 49 45 43 41 40 39 39 41 45 44 39 37 38 39 43 45 45 42 38 37 41 42 47 55 62 67 73 78 79 76 74 73 74 74 74 74 73 72
55 54 54 53 51 47 45 44 42 41 44 49 51 47 42 41 41 41 43 45 45 42 37 40 47 49 53 62 68 72 76 79 80 79 76 75 75 73 72 74 75 75
56 56 55 54 51 48 47 46 44 45 48 53 54 51 47 44 42 42 43 45 46 42 40 45 49 50 56 65 70 73 76 80 82 80 78 76 75 72 72 75 76 76
57 57 56 55 52 49 49 48 47 50 52 53 54 55 54 49 44 43 44 46 46 43 44 47 47 49 57 64 69 73 77 80 81 81 80 78 75 73 72 73 75 78
57 57 56 55 53 51 51 50 51 55 56 54 56 61 61 56 49 46 46 47 46 45 47 49 50 53 60 65 68 72 75 78 79 79 79 77 75 74 73 72 74 79
57 58 57 56 55 53 52 52 54 58 59 57 58 64 67 64 55 49 49 49 47 48 50 52 55 57 62 66 68 71 74 75 76 76 76 76 76 75 74 75 77 81
58 58 57 57 56 55 55 54 55 58 59 58 61 68 72 71 63 54 52 52 50 51 53 54 56 57 61 65 67 70 73 73 73 74 75 75 76 76 77 77 78 82
59 58 58 58 56 56 56 57 57 58 59 61 65 70 75 76 69 61 56 54 52 52 51 51 54 57 59 63 67 69 71 71 72 73 73 74 76 76 76 76 79 85
61 60 59 58 57 57 57 58 60 59 60 63 67 72 78 81 75 66 59 56 54 53 51 50 53 56 59 62 66 68 69 70 70 71 72 74 75 74 76 79 80 78
61 61 61 60 59 59 59 59 61 61 62 66 68 73 81 84 79 71 63 59 57 55 53 52 54 57 60 62 65 67 68 69 69 71 73 73 74 77 78 75 73 72
61 61 62 61 60 60 60 61 62 63 65 68 70 76 83 85 81 75 68 63 60 57 56 57 57 58 59 61 63 65 67 68 69 71 72 75 78 79 74 72 78 87
62 62 62 62 61 61 61 62 63 64 67 69 71 77 84 85 81 77 72 67 63 61 59 59 59 59 59 62 65 65 64 67 69 71 74 78 79 76 75 82 90 92
63 63 63 63 63 62 61 62 63 64 66 69 72 78 85 86 81 79 75 70 67 65 62 62 61 60 61 68 74 74 69 67 68 72 77 77 75 78 86 93 92 89
64 64 65 65 65 63 63 63 63 64 66 68 72 79 85 86 82 81 77 72 70 67 64 64 62 61 66 74 80 82 81 77 72 72 76 76 79 88 95 94 92 91
65 65 66 66 67 66 65 64 64 66 66 68 72 78 84 86 84 83 80 77 74 68 66 66 63 64 72 78 80 82 86 87 84 81 80 82 87 94 96 92 89 88
67 67 67 67 68 68 67 66 66 67 67 68 72 78 85 87 85 84 82 79 75 70 68 69 65 64 72 80 83 83 83 87 93 92 90 89 91 94 93 88 86 87
69 69 68 68 69 69 69 68 67 68 68 69 72 78 85 88 85 84 82 79 77 74 72 71 66 65 72 80 83 83 83 86 92 95 94 92 91 91 89 85 84 87
71 70 69 69 70 70 70 70 68 68 68 70 74 80 86 88 85 84 83 81 80 77 74 72 67 68 76 80 80 82 84 87 92 95 95 93 91 90 86 83 84 86
73 71 70 70 70 71 72 71 70 70 69 71 77 84 89 89 86 85 85 84 82 78 75 72 67 70 78 81 81 83 84 87 93 94 93 93 91 88 84 82 84 86
75 73 71 70 71 72 72 72 72 72 72 74 79 86 91 89 87 87 86 86 83 78 76 73 67 67 75 82 84 82 83 87 91 92 94 94 90 86 83 84 86 89
77 74 72 71 71 72 72 73 74 74 75 77 81 87 91 90 88 87 86 85 83 79 77 76 70 65 70 82 85 82 83 87 90 95 96 91 87 86 85 87 90 89
79 76 74 72 72 72 72 73 74 75 77 80 84 88 91 90 88 86 85 83 81 79 77 76 72 65 65 77 84 82 84 89 93 97 95 88 87 87 86 89 90 89

ECMWFNIL_925_rhum_009.txt.gz
RH
56 59 61 62 61 58 57 57 56 54 50 45 42 41 40 40 40 42 44 46 47 48 47 46 43 41 38 36 43 50 49 44 39 38 40 42 44 46 50 53 55 59
59 57 59 62 63 62 60 59 59 57 54 49 44 40 39 39 41 43 43 45 47 48 48 47 45 43 40 44 56 59 52 46 41 40 42 43 45 48 51 53 53 56
64 61 59 60 61 63 62 62 63 61 59 55 49 44 40 38 40 42 43 44 46 48 49 48 46 44 44 54 67 64 54 48 41 40 43 44 46 50 52 53 55 57
67 65 62 61 60 61 62 63 65 64 62 59 54 50 44 40 39 41 43 45 46 48 49 48 48 45 51 67 76 68 58 51 41 39 44 46 48 51 53 56 58 60
69 67 66 64 62 60 61 63 64 64 64 61 57 53 48 44 42 41 43 45 46 48 49 50 49 48 59 77 81 72 65 57 46 44 46 46 50 53 55 59 61 64
70 69 68 67 66 63 62 62 62 62 63 62 58 54 48 45 44 42 43 45 46 48 49 52 53 57 70 84 82 74 68 59 52 49 48 48 52 56 59 62 64 67
73 72 70 70 69 67 64 63 62 62 62 62 60 55 49 44 43 43 43 44 46 48 50 52 57 66 80 86 82 74 68 60 54 52 50 51 56 60 62 65 68 70
75 74 72 72 72 70 67 65 64 62 61 62 61 57 52 46 42 42 42 44 46 48 50 53 60 73 84 87 82 76 68 61 57 55 55 56 59 62 64 68 72 73
76 76 75 75 74 72 70 68 66 64 62 62 61 59 55 50 45 43 42 43 45 48 51 57 66 79 87 86 82 77 71 64 60 58 57 58 59 60 64 70 75 76
75 77 77 78 76 74 73 71 70 66 64 63 61 60 57 53 49 47 45 46 47 50 55 62 72 81 86 84 82 79 73 66 63 62 61 59 57 57 63 71 75 77
74 76 78 79 78 77 75 74 74 70 66 64 62 61 58 56 53 52 51 51 50 53 57 64 73 80 84 84 82 81 75 68 66 65 63 61 58 58 62 68 73 76
75 76 78 80 80 80 78 77 78 75 70 66 63 61 59 58 57 56 55 55 54 56 63 69 75 81 85 84 84 83 77 72 70 68 65 63 61 60 63 68 70 72
77 76 78 81 82 83 81 80 81 79 74 69 64 62 60 59 60 59 59 60 59 62 68 74 78 82 84 85 86 86 81 76 73 71 68 67 67 67 69 71 71 71
78 78 80 82 83 85 85 84 83 82 79 73 67 64 62 61 61 62 63 65 65 67 70 75 79 82 84 86 89 88 84 80 76 73 72 72 72 73 72 72 73 73
79 81 82 83 86 88 88 88 86 84 83 77 70 66 63 63 64 65 68 70 72 73 74 76 81 84 86 87 88 88 85 82 78 75 74 74 74 75 74 74 76 76
82 84 84 85 88 91 91 91 88 87 87 82 74 69 65 65 67 69 71 73 76 78 79 81 84 86 87 87 88 88 84 82 82 77 73 73 74 76 79 81 82 81
84 86 87 88 92 94 94 94 92 91 91 87 79 72 68 68 70 72 73 74 77 80 82 85 88 88 90 93 94 94 88 84 82 78 73 74 75 77 80 84 86 84
86 87 89 91 95 98 97 96 96 96 95 92 84 77 72 71 72 73 74 75 78 82 85 88 90 91 94 96 96 97 95 88 82 78 75 74 75 78 81 84 86 84
87 89 92 94 97 99 98 98 100 98 96 93 88 81 75 73 74 75 76 78 81 84 87 89 90 92 96 97 94 95 98 95 85 79 76 74 74 78 82 83 83 82
87 90 92 95 97 98 98 100 100 99 97 95 91 86 80 77 77 79 80 82 83 85 88 90 91 92 95 97 95 94 97 98 92 84 77 74 75 78 82 83 81 80
87 89 92 94 95 96 98 100 100 99 97 96 94 90 85 82 81 81 83 85 85 87 90 91 92 93 95 97 96 94 95 99 98 92 84 80 80 80 81 81 79 77
87 90 92 93 93 96 99 100 99 99 97 97 97 93 89 87 84 82 84 86 87 90 93 93 94 96 98 97 96 95 95 97 100 99 95 92 90 88 86 81 77 75
87 90 92 93 94 98 100 98 98 99 98 98 98 96 92 89 85 83 84 86 88 91 94 95 95 96 99 99 97 95 95 98 101 100 99 99 97 94 92 87 81 78
88 91 93 95 98 99 97 96 97 99 99 99 99 98 94 89 86 86 86 87 89 90 93 95 94 94 97 99 97 95 96 99 101 100 100 101 99 97 95 92 88 86
89 92 94 97 98 97 95 96 97 98 99 100 99 98 96 92 89 89 88 88 88 89 91 94 95 94 96 98 97 95 96 99 100 100 100 100 100 100 99 96 94 94
90 92 94 96 96 96 96 96 97 97 98 100 100 98 96 95 92 89 89 88 88 90 92 94 95 94 94 97 98 95 95 98 100 100 100 100 100 100 100 100 98 97

ECMWFNIL_925_rhum_012.txt.gz
RH
78 77 75 76 75 74 73 71 72 71 71 71 70 68 63 60 57 52 49 47 48 50 50 51 51 51 50 49 48 44 41 39 36 37 38 37 38 39 40 41 41 44
77 77 77 77 76 76 75 74 74 72 72 71 70 71 68 64 60 54 51 49 49 50 50 51 52 52 52 50 49 46 43 42 40 40 40 40 42 42 41 41 42 46
75 77 77 77 77 77 76 77 77 74 72 71 69 70 69 67 63 57 52 49 49 50 50 52 53 53 53 51 50 48 45 44 43 42 41 42 45 45 42 42 44 47
73 74 76 76 76 76 77 78 79 76 74 73 71 69 69 69 65 60 54 49 49 50 50 52 53 54 54 53 52 50 47 46 43 41 43 48 51 49 45 44 46 48
69 72 74 75 75 75 76 78 79 78 78 75 73 71 70 69 67 62 56 51 49 49 50 52 53 54 54 54 54 52 51 51 47 45 50 60 61 54 48 46 47 51
66 68 71 73 75 75 77 78 78 79 80 78 76 75 72 69 67 64 58 53 50 49 50 53 54 55 56 56 55 54 54 52 50 54 62 69 67 57 51 50 49 52
65 66 69 72 74 76 77 78 78 80 80 80 80 78 76 72 68 65 60 55 52 50 51 53 55 56 57 58 59 59 58 55 56 64 71 71 69 62 56 53 52 55
65 67 69 71 73 75 77 77 78 79 80 81 82 81 80 76 70 65 61 57 53 51 52 53 56 58 58 60 63 64 63 62 66 74 76 73 70 65 59 57 57 58
65 68 69 72 74 75 77 77 78 79 81 83 83 83 83 81 76 68 63 58 54 52 53 54 56 59 60 63 67 68 68 70 75 78 78 75 72 68 63 61 62 63
66 68 70 73 75 76 78 78 79 80 82 84 85 85 85 84 81 73 65 60 56 54 54 54 56 58 62 66 70 72 72 74 79 81 80 77 73 70 66 64 66 67
68 69 71 73 75 77 79 80 82 83 84 85 86 87 86 86 86 79 70 62 57 56 55 54 55 58 62 68 71 74 76 77 80 82 81 79 75 71 67 64 66 65
70 71 72 74 76 78 80 82 84 85 87 88 88 89 89 87 88 85 76 68 61 58 57 56 56 58 63 69 73 76 78 80 82 82 80 80 77 73 68 65 65 63
72 72 72 75 76 79 82 84 87 88 89 90 90 91 92 89 90 90 84 74 66 62 60 59 59 61 66 71 75 78 81 84 85 84 83 82 80 76 71 69 66 62
73 73 74 76 78 82 85 86 88 90 91 94 95 94 94 92 91 93 90 81 72 68 66 63 63 65 69 74 78 81 83 85 87 88 88 86 84 82 77 72 69 64
74 74 75 77 80 84 87 88 89 92 94 98 98 97 95 94 94 95 95 88 80 76 73 71 70 70 71 75 79 83 85 88 90 91 91 90 87 85 82 76 72 68
74 75 76 80 84 86 87 90 90 93 97 99 98 97 96 97 98 98 97 92 86 83 80 78 77 75 74 75 78 83 86 90 94 93 92 91 89 87 86 82 76 72
75 76 78 82 85 87 88 90 92 95 99 99 98 98 98 99 100 99 97 94 90 88 85 84 82 80 78 80 84 88 89 91 96 96 93 92 92 89 87 85 82 78
74 76 80 83 86 87 87 90 94 96 99 99 99 98 97 99 100 99 97 95 93 91 89 88 86 83 83 87 91 95 94 93 95 96 95 94 93 91 88 86 85 83
75 77 82 84 85 86 87 91 96 97 97 98 99 98 98 99 99 98 97 96 95 94 92 90 87 86 89 92 93 95 97 97 95 95 96 95 93 92 90 88 87 86
76 80 82 84 85 86 89 95 97 96 95 96 98 99 99 99 99 98 97 97 96 94 94 93 90 89 92 94 94 94 96 98 97 95 94 95 93 92 90 89 87 86
78 81 83 85 86 87 92 96 96 95 94 94 97 100 100 100 99 99 98 96 96 96 95 95 93 92 94 95 94 94 95 97 99 97 95 94 94 92 90 88 85 82
79 82 84 86 87 90 94 95 94 95 95 94 97 100 100 100 100 99 98 96 96 97 97 96 94 94 96 96 95 94 94 96 100 99 96 95 95 93 92 88 84 81
81 84 86 87 90 93 94 93 94 96 97 97 99 100 99 99 99 99 98 98 98 98 98 97 95 94 97 97 95 95 95 97 101 100 97 97 95 93 93 90 84 81
83 86 87 89 93 95 94 94 95 97 98 98 99 101 100 98 98 99 99 99 99 98 97 96 94 94 97 99 98 96 96 98 101 100 98 98 95 94 93 90 86 85
86 88 89 91 94 95 94 94 96 99 99 98 97 99 100 99 98 100 100 99 98 97 96 96 95 94 96 100 99 96 95 99 100 100 100 99 98 98 96 93 93 94
89 89 90 91 94 95 93 94 97 100 99 98 97 98 100 100 99 100 100 98 97 97 97 98 97 95 94 97 99 96 95 99 100 100 100 100 100 100 100 99 98 98